Regional Weather Roundup
Issued by NWS

Home | Current Version | Previous Version | Graphics & Text | Print | Product List | Glossary On
Versions: 1 2 3 4 5 6 7 8 9 10 11 12 13 14 15 16 17 18 19 20 21 22 23 24 25 26 27 28 29 30 31 32 33 34 35 36 37 38 39 40 41 42 43 44 45 46 47 48 49 50
000
ASUS43 KBIS 230810
RWRND

NORTH DAKOTA REGIONAL WEATHER ROUNDUP
NATIONAL WEATHER SERVICE BISMARCK ND
200 AM CST MON JAN 23 2017

NOTE: "FAIR" INDICATES FEW OR NO CLOUDS BELOW 12,000 FEET WITH NO
SIGNIFICANT WEATHER AND/OR OBSTRUCTIONS TO VISIBILITY.


NDZ001>003-009>011-017-230900-
NORTHWEST NORTH DAKOTA

CITY           SKY/WX    TMP DP  RH WIND       PRES   REMARKS
WILLISTON      CLOUDY    28  24  85 SW5       29.79S
MINOT          MOCLDY    27  22  81 W8        29.77R WCI  19
MINOT AFB      CLOUDY    27  22  82 W10       29.76R WCI  17
$$

NDZ018>021-031>035-040>046-230900-
SOUTHWEST NORTH DAKOTA

CITY           SKY/WX    TMP DP  RH WIND       PRES   REMARKS
BISMARCK       CLOUDY    30  24  78 W5        29.82F
DICKINSON      CLOUDY    24  19  81 NW5       29.75F WCI  18
GARRISON         N/A     28  21  75 W9        29.79R WCI  19
HETTINGER ARPT CLOUDY    23  22  96 CALM      29.79F FOG
$$

NDZ004>008-012>016-024-026-027-054-230900-
NORTHEAST NORTH DAKOTA

CITY           SKY/WX    TMP DP  RH WIND       PRES   REMARKS
GRAND FORKS    CLOUDY    33  27  78 W5        29.77S
GRND FRKS AFB  CLOUDY    32  28  84 W9        29.77R
DEVILS LAKE    CLOUDY    29  26  89 W13       29.75S WCI  19
$$

NDZ022-023-025-028>030-036>039-047>053-230900-
SOUTHEAST NORTH DAKOTA

CITY           SKY/WX    TMP DP  RH WIND       PRES   REMARKS
FARGO          CLOUDY    34  30  85 W6        29.80R
JAMESTOWN      CLOUDY    31  26  82 W13       29.78F
$$





USA.gov is the U.S. government's official web portal to all federal, state and local government web resources and services.